Location: Prairie Dale
(45.6972°N, 104.5033°W)
Time: 07:00:40
(UTC+00:00)

EO-79 - Pass Details

Date: 04 July 2022
Orbit: 588 x 603 km, 98.0° (Epoch: 15 August)

Event Time Altitude Azimuth Distance (km) Brightness Sun altitude
Rises 09:30:01 0° 4° (N) 2,859 ? -13.7°
Reaches altitude 10° 09:32:21 10° 355° (N) 1,953 ? -13.5°
Maximum altitude 09:36:07 32° 292° (WNW) 1,043 ? -13.1°
Enters shadow 09:38:38 18° 239° (WSW) 1,517 ? -12.8°
